SCP
0 0 0 0 0 0 0 0 0 0 0 0 0 0 0 0 0 0 0 0 0 0 0 0 0 0 0 0 0 0 0 0 0 0 0 0 0 0 0 0 0 0 0
0 0 0 0 0 0 0 0 0 0 0 0 0 0 0 0 0 0 0 0 0 0 0 0 0 0 0 0 0 0 -0 -0 -0 0 0 0 0 -0 -0 0 0 0 0
0 0 0 0 0 0 0 0 0 0 0 0 0 0 0 0 0 0 0 0 0 0 0 0 0 0 0 0 0 -0 -0 -0 -0 0 0 0 0 -0 0 0 0 0 0
0 0 0 0 0 0 0 0 0 0 0 0 0 0 0 0 0 0 0 0 0 0 0 0 0 0 0 0 -0 -0 -0 0 -0 -0 0 0 0 0 0 0 0 0 0
0 0 0 0 0 0 0 0 0 0 0 0 0 0 0 0 0 0 0 0 0 0 0 0 0 0 0 0 0 0 0 -0 0 0 0 0 0 0 0 0 0 0 0
0 0 0 0 0 0 0 0 0 0 0 0 0 0 0 0 0 0 0 0 0 0 0 0 0 0 0 0 0 -0 -0 -0 0 0 0 0 0 0 0 0 0 0 0
0 0 0 0 0 0 0 0 0 0 0 0 0 0 0 0 0 0 0 0 0 0 0 0 0 0 0 0 0 0 -0 0 0 0 0 0 0 0 0 0 0 0 0
0 0 0 0 0 0 0 0 0 0 0 0 0 0 0 0 0 0 0 0 0 0 0 0 0 0 0 0 0 0 0 0 0 0 0 0 0 0 0 0 0 0 0
0 0 0 0 0 0 0 0 0 0 0 0 0 0 0 0 0 0 0 0 0 0 0 0 0 0 0 0 0 0 0 0 0 0 0 0 0 0 0 0 0 0 0
0 0 0 0 0 0 0 0 0 0 0 0 0 0 0 0 0 0 0 0 0 0 0 0 0 0 0 0 0 0 0 0 0 0 0 0 0 0 0 0 0 0 0
0 0 0 0 0 0 0 0 0 0 0 0 0 0 0 0 0 0 0 0 0 0 0 0 0 0 0 0 0 0 0 0 0 0 0 0 0 0 0 0 0 0 0
0 0 0 0 0 0 0 0 0 0 0 0 0 0 0 0 0 0 0 0 0 0 0 0 0 0 0 0 0 0 0 0 0 0 0 0 0 0 0 0 0 0 0
0 0 0 0 0 0 0 0 0 0 0 0 0 0 0 0 0 0 0 0 0 0 0 0 0 0 0 0 0 0 0 0 0 0 0 0 0 0 0 0 0 0 0
0 0 0 0 0 0 0 0 0 0 0 0 0 0 0 0 0 0 0 0 0 0 0 0 0 0 0 0 0 0 0 0 0 0 0 0 0 0 0 0 0 0 0
0 0 0 0 0 0 0 0 0 0 0 0 0 0 0 0 0 0 0 0 0 0 0 0 0 0 0 0 0 0 0 0 0 0 0 0 0 0 0 0 0 0 0
0 0 0 0 0 0 0 0 0 0 0 0 0 0 0 0 0 0 0 0 0 0 0 0 0 0 0 0 0 0 0 0 0 0 0 0 0 0 0 0 0 0 0
0 0 0 0 0 0 0 0 0 0 0 0 0 0 0 0 0 0 0 0 0 0 0 0 0 0 0 0 0 0 0 0 0 0 0 0 0 0 0 0 0 0 0
0 0 0 0 0 0 0 0 0 0 0 0 0 0 0 0 0 0 0 0 0 0 0 0 0 0 0 0 0 0 0 0 0 0 0 0 0 0 0 0 0 0 0
0 0 0 0 0 0 0 0 0 0 0 0 0 0 0 0 0 0 0 0 0 0 0 0 0 0 0 0 0 0 0 0 0 0 0 0 0 0 0 0 0 0 0
0 0 0 0 0 0 0 0 0 0 0 0 0 0 0 0 0 0 0 0 0 0 0 0 0 0 0 0 0 0 0 0 0 0 0 0 0 0 0 0 0 0 0
0 0 0 0 0 0 0 0 0 0 0 0 0 0 0 0 0 0 0 0 0 0 0 0 0 0 0 0 0 0 0 0 0 0 0 0 0 0 0 0 0 0 0
0 0 0 0 0 0 0 0 0 0 0 0 0 0 0 0 0 0 0 0 0 0 0 0 0 0 0 0 0 0 0 0 0 0 0 0 0 0 0 -0 -0 0 0
0 0 0 0 0 0 0 0 0 0 0 0 0 0 0 0 0 0 0 0 0 0 0 0 0 0 0 0 0 0 0 0 0 0 0 0 0 -0 -0 -0 -0 -0 0
0 0 0 0 0 0 0 0 0 0 0 0 0 0 0 0 0 0 0 0 0 0 0 0 0 0 0 0 0 0 0 0 0 0 0 0 -0 -0 -0 -0 -0 -0 -0
0 0 0 0 0 0 0 0 0 0 0 0 0 0 0 0 0 0 0 0 0 0 0 0 0 0 0 0 0 0 0 0 0 0 0 0 0 0 -0 -0 -0 -0 -0
0 0 0 0 0 0 0 0 0 0 0 0 0 0 0 0 0 0 0 0 0 0 0 0 0 0 0 0 0 0 0 0 0 0 0 0 0 0 0 0 -0 -0 -0
Wind_Speed_500mb
66 68 71 74 78 76 77 73 65 57 50 45 40 35 30 25 21 15 11 11 10 11 13 15 18 20 24 27 31 34 39 46 56 66 70 72 74 78 81 84 87 87 86
67 67 70 78 78 78 77 69 62 55 49 42 38 35 31 26 20 14 7 4 6 9 9 12 14 17 21 25 29 34 38 43 52 63 64 70 76 82 86 89 89 89 89
72 70 76 79 83 83 75 68 61 54 48 44 38 34 29 24 17 13 8 3 2 3 4 6 9 13 18 25 29 33 37 40 44 56 69 72 78 80 85 84 88 91 92
75 76 79 87 88 82 75 67 59 52 47 43 39 34 28 22 15 16 16 9 3 3 4 4 8 11 18 23 28 33 38 42 46 55 66 73 74 75 76 86 96 95 98
79 79 85 90 90 85 78 70 61 52 46 41 36 30 21 19 26 26 20 13 9 8 9 9 10 14 18 25 30 35 37 40 47 53 62 70 71 74 77 84 91 98 102
82 85 89 93 91 85 78 69 61 55 49 42 33 26 22 28 35 30 25 20 15 14 13 12 16 18 23 28 34 37 31 34 45 53 59 63 66 67 75 80 86 95 103
87 91 94 98 95 88 77 69 64 59 52 41 34 24 30 38 35 36 31 27 23 20 18 19 20 24 28 31 35 37 36 38 40 49 56 55 61 64 71 80 81 84 89
88 92 97 99 96 89 81 74 67 60 51 34 35 28 35 39 43 41 38 33 29 26 26 27 29 33 35 36 38 43 46 48 47 52 52 52 55 60 62 70 75 81 86
93 98 102 101 95 89 85 80 71 63 44 46 39 37 40 46 46 43 41 37 35 33 35 36 38 40 42 44 45 46 51 52 52 56 54 53 56 56 57 68 69 75 88
98 99 97 96 98 96 89 80 76 63 50 55 42 43 46 50 46 43 43 40 42 42 42 42 46 49 49 47 43 46 58 57 61 66 65 64 59 59 57 56 60 66 71
93 94 97 99 99 92 86 82 76 69 59 58 47 53 54 49 46 44 42 46 46 47 47 50 52 51 52 48 39 50 60 57 65 65 70 72 70 65 62 60 55 57 64
82 91 94 92 90 95 86 87 83 71 66 63 52 62 56 50 46 45 46 47 47 51 52 55 58 56 54 52 43 55 57 57 63 67 72 75 74 70 65 62 61 57 56
75 81 81 85 90 98 95 99 92 76 72 71 60 64 58 51 48 50 46 48 50 56 58 60 60 59 54 48 57 61 61 64 65 70 73 74 74 70 66 63 62 59 62
64 72 82 85 82 87 101 101 100 84 80 78 70 67 61 55 52 51 50 50 53 58 59 58 55 57 54 59 62 59 63 65 70 73 73 75 75 70 64 59 63 64 68
54 61 70 79 82 80 95 99 102 95 78 78 71 65 60 57 51 50 53 56 57 57 59 65 65 62 61 61 63 67 67 69 72 70 70 71 72 68 61 55 56 59 63
50 55 58 65 76 85 83 87 97 88 77 79 72 71 68 65 63 61 60 59 58 61 61 64 65 64 70 70 70 73 73 76 73 69 69 67 67 65 61 55 52 56 63
41 45 49 55 64 72 83 84 83 86 86 83 77 79 77 72 67 65 64 62 61 50 49 58 69 72 75 78 78 79 81 80 75 70 68 66 63 61 57 55 51 55 60
35 39 45 50 55 63 73 78 84 91 84 79 82 83 81 76 72 67 66 58 49 52 60 67 72 75 79 80 80 81 81 77 72 70 67 64 60 58 57 54 50 53 57
34 38 42 47 52 58 65 73 82 88 79 78 79 78 74 67 63 66 63 63 62 62 63 67 71 74 77 78 78 75 73 73 70 68 65 62 57 55 55 53 51 50 52
33 36 39 44 50 57 65 73 82 87 79 75 78 77 73 72 71 67 64 64 65 65 64 66 66 67 70 72 72 70 70 68 64 62 61 58 54 53 55 54 50 52 50
41 43 45 49 54 58 62 69 75 80 77 76 76 69 69 71 69 68 65 63 61 61 60 60 59 61 61 61 61 61 61 60 58 57 57 54 50 52 52 52 50 47 48
50 51 54 56 59 64 68 70 73 75 76 75 71 69 69 75 71 66 61 58 55 53 50 49 50 48 48 50 49 50 52 52 49 50 52 50 49 51 51 49 46 43 43
50 55 60 64 65 68 71 73 75 75 73 70 67 67 68 68 62 58 54 49 45 41 41 44 42 40 40 41 41 45 47 47 46 47 47 48 50 49 46 45 43 41 42
51 54 57 61 65 67 68 68 68 67 66 64 63 63 61 58 54 48 47 42 38 36 39 39 38 37 35 34 37 40 43 44 46 47 48 50 48 43 42 41 40 37 39
44 47 51 55 58 60 61 62 63 63 64 64 62 57 53 48 43 44 42 38 35 35 35 37 38 36 36 36 37 40 42 43 43 43 42 44 44 42 39 39 37 36 35
39 41 44 46 48 50 52 55 56 56 55 52 50 48 44 43 43 40 38 35 35 34 32 33 34 34 36 36 38 40 40 39 39 37 41 44 43 41 40 40 37 37 35
Wind_Direction_500mb
214 208 206 202 196 194 192 188 186 184 181 176 174 172 166 159 150 137 119 85 57 37 33 31 24 17 10 6 358 354 351 346 337 338 341 339 338 339 342 343 342 341 338
215 211 207 200 200 197 192 188 186 184 180 179 175 171 167 163 155 145 124 87 36 30 33 32 20 12 5 1 357 352 350 346 338 334 340 342 344 346 344 341 339 338 336
218 216 209 204 198 194 192 190 187 186 182 178 178 174 171 169 170 171 185 202 354 17 16 16 10 6 358 359 353 349 347 342 333 332 340 344 345 344 338 336 334 335 335
217 217 210 202 198 196 194 192 190 188 185 181 179 178 178 181 191 219 213 220 242 257 286 331 330 348 357 351 349 347 342 337 336 338 340 339 339 339 335 336 334 335 333
219 215 209 204 201 197 195 193 190 188 185 183 182 179 184 217 228 215 219 230 241 253 268 279 313 330 340 342 343 342 336 337 337 331 333 333 333 335 335 334 329 331 332
217 213 209 206 201 198 196 193 191 188 186 184 181 197 209 228 220 221 229 235 244 251 263 284 298 312 331 326 325 330 327 324 321 327 326 325 327 330 330 327 328 328 327
216 213 210 205 202 199 196 194 194 192 188 183 209 204 222 224 227 230 234 241 246 255 266 275 288 307 307 312 315 315 326 323 315 312 315 320 322 327 324 323 323 322 320
216 214 210 207 203 199 198 198 197 192 190 216 220 209 226 235 235 234 238 245 252 260 268 280 287 293 300 302 302 313 318 316 311 310 314 317 317 320 317 314 317 316 316
218 215 211 208 205 204 202 202 198 192 209 235 208 215 231 238 239 239 244 250 257 265 271 276 285 291 292 300 303 305 305 310 309 306 309 313 315 315 315 313 317 319 322
222 219 215 213 211 209 207 203 201 208 226 225 205 221 234 238 241 244 249 255 264 267 272 280 284 285 288 296 300 300 303 310 305 307 313 314 314 316 316 315 319 321 323
223 221 218 216 215 214 211 210 212 217 234 222 212 226 237 240 244 248 255 259 263 269 275 278 280 282 288 295 294 289 296 304 301 307 307 310 314 317 317 319 321 320 319
227 226 221 219 222 217 216 216 220 219 231 225 219 230 235 240 246 251 255 261 266 273 277 278 280 284 291 293 287 280 291 298 304 302 305 309 313 316 318 318 318 318 318
228 227 226 223 221 220 223 224 217 221 234 233 229 232 235 241 247 252 256 263 270 275 278 279 285 291 293 282 280 287 291 300 304 304 304 307 310 314 315 315 315 319 320
232 228 225 223 232 225 220 221 217 229 238 239 234 233 237 242 247 252 259 265 269 270 276 281 283 282 283 288 293 295 295 299 303 303 303 305 307 309 313 316 317 323 325
235 235 233 229 227 224 224 227 224 237 240 237 242 238 242 247 252 258 259 261 266 274 276 276 277 281 288 292 292 294 296 299 301 299 298 300 302 305 310 314 316 320 327
235 236 235 233 229 229 228 229 232 237 235 242 242 242 245 248 249 256 262 266 270 272 271 276 284 288 290 293 294 293 293 298 299 295 296 298 300 303 307 310 313 317 324
236 238 238 236 232 232 230 232 232 227 238 243 240 242 245 249 254 259 264 269 268 270 266 268 277 282 283 284 287 289 291 295 295 295 295 296 297 299 302 307 312 314 321
241 241 242 242 238 234 232 235 231 228 241 246 241 244 249 254 256 260 261 264 259 252 261 268 272 275 277 281 284 287 290 292 292 293 292 293 294 296 300 305 309 311 318
249 249 246 243 242 241 240 236 234 236 248 250 244 248 251 252 253 259 261 259 263 269 272 274 276 278 281 283 286 289 291 291 291 291 291 292 292 292 296 301 306 308 312
255 254 253 249 245 242 238 238 238 241 254 249 247 248 249 252 254 256 258 261 267 273 276 278 281 284 287 289 292 293 292 291 291 291 291 291 290 290 293 298 304 307 311
254 254 251 249 246 245 244 244 245 249 251 251 252 250 249 250 252 253 255 262 267 272 278 282 286 291 294 296 297 295 292 292 294 293 292 291 291 294 292 294 301 305 309
256 255 255 254 253 251 249 248 248 249 250 251 250 244 243 246 246 249 255 260 266 272 280 287 290 297 303 303 299 296 295 297 296 293 290 292 293 294 294 293 295 303 309
259 258 257 256 255 255 253 252 252 252 252 250 245 241 240 244 247 250 255 260 266 276 283 288 295 301 302 302 299 299 299 299 296 293 293 293 293 293 292 292 291 297 307
264 263 262 262 261 260 259 257 256 253 249 244 240 238 238 242 247 254 257 261 268 276 279 285 291 295 296 298 299 299 297 295 294 294 294 294 294 294 292 292 292 294 301
270 268 266 264 263 262 259 256 251 245 241 239 238 237 238 243 249 249 251 257 265 270 274 280 284 288 293 296 298 296 294 293 293 294 293 290 291 292 292 294 292 290 296
278 273 270 266 263 260 256 251 247 243 240 237 235 235 238 239 241 245 251 258 263 267 272 276 282 289 292 294 294 291 292 292 292 291 289 289 290 291 292 292 291 284 292
Wind_Speed_850mb
66 68 71 74 78 76 77 73 65 57 50 45 40 35 30 25 21 15 11 11 10 11 13 15 18 20 24 27 31 34 39 46 56 66 70 72 74 78 81 84 87 87 86
67 67 70 78 78 78 77 69 62 55 49 42 38 35 31 26 20 14 7 4 6 9 9 12 14 17 21 25 29 34 38 43 52 63 64 70 76 82 86 89 89 89 89
72 70 76 79 83 83 75 68 61 54 48 44 38 34 29 24 17 13 8 3 2 3 4 6 9 13 18 25 29 33 37 40 44 56 69 72 78 80 85 84 88 91 92
75 76 79 87 88 82 75 67 59 52 47 43 39 34 28 22 15 16 16 9 3 3 4 4 8 11 18 23 28 33 38 42 46 55 66 73 74 75 76 86 96 95 98
79 79 85 90 90 85 78 70 61 52 46 41 36 30 21 19 26 26 20 13 9 8 9 9 10 14 18 25 30 35 37 40 47 53 62 70 71 74 77 84 91 98 102
82 85 89 93 91 85 78 69 61 55 49 42 33 26 22 28 35 30 25 20 15 14 13 12 16 18 23 28 34 37 31 34 45 53 59 63 66 67 75 80 86 95 103
87 91 94 98 95 88 77 69 64 59 52 41 34 24 30 38 35 36 31 27 23 20 18 19 20 24 28 31 35 37 36 38 40 49 56 55 61 64 71 80 81 84 89
88 92 97 99 96 89 81 74 67 60 51 34 35 28 35 39 43 41 38 33 29 26 26 27 29 33 35 36 38 43 46 48 47 52 52 52 55 60 62 70 75 81 86
93 98 102 101 95 89 85 80 71 63 44 46 39 37 40 46 46 43 41 37 35 33 35 36 38 40 42 44 45 46 51 52 52 56 54 53 56 56 57 68 69 75 88
98 99 97 96 98 96 89 80 76 63 50 55 42 43 46 50 46 43 43 40 42 42 42 42 46 49 49 47 43 46 58 57 61 66 65 64 59 59 57 56 60 66 71
93 94 97 99 99 92 86 82 76 69 59 58 47 53 54 49 46 44 42 46 46 47 47 50 52 51 52 48 39 50 60 57 65 65 70 72 70 65 62 60 55 57 64
82 91 94 92 90 95 86 87 83 71 66 63 52 62 56 50 46 45 46 47 47 51 52 55 58 56 54 52 43 55 57 57 63 67 72 75 74 70 65 62 61 57 56
75 81 81 85 90 98 95 99 92 76 72 71 60 64 58 51 48 50 46 48 50 56 58 60 60 59 54 48 57 61 61 64 65 70 73 74 74 70 66 63 62 59 62
64 72 82 85 82 87 101 101 100 84 80 78 70 67 61 55 52 51 50 50 53 58 59 58 55 57 54 59 62 59 63 65 70 73 73 75 75 70 64 59 63 64 68
54 61 70 79 82 80 95 99 102 95 78 78 71 65 60 57 51 50 53 56 57 57 59 65 65 62 61 61 63 67 67 69 72 70 70 71 72 68 61 55 56 59 63
50 55 58 65 76 85 83 87 97 88 77 79 72 71 68 65 63 61 60 59 58 61 61 64 65 64 70 70 70 73 73 76 73 69 69 67 67 65 61 55 52 56 63
41 45 49 55 64 72 83 84 83 86 86 83 77 79 77 72 67 65 64 62 61 50 49 58 69 72 75 78 78 79 81 80 75 70 68 66 63 61 57 55 51 55 60
35 39 45 50 55 63 73 78 84 91 84 79 82 83 81 76 72 67 66 58 49 52 60 67 72 75 79 80 80 81 81 77 72 70 67 64 60 58 57 54 50 53 57
34 38 42 47 52 58 65 73 82 88 79 78 79 78 74 67 63 66 63 63 62 62 63 67 71 74 77 78 78 75 73 73 70 68 65 62 57 55 55 53 51 50 52
33 36 39 44 50 57 65 73 82 87 79 75 78 77 73 72 71 67 64 64 65 65 64 66 66 67 70 72 72 70 70 68 64 62 61 58 54 53 55 54 50 52 50
41 43 45 49 54 58 62 69 75 80 77 76 76 69 69 71 69 68 65 63 61 61 60 60 59 61 61 61 61 61 61 60 58 57 57 54 50 52 52 52 50 47 48
50 51 54 56 59 64 68 70 73 75 76 75 71 69 69 75 71 66 61 58 55 53 50 49 50 48 48 50 49 50 52 52 49 50 52 50 49 51 51 49 46 43 43
50 55 60 64 65 68 71 73 75 75 73 70 67 67 68 68 62 58 54 49 45 41 41 44 42 40 40 41 41 45 47 47 46 47 47 48 50 49 46 45 43 41 42
51 54 57 61 65 67 68 68 68 67 66 64 63 63 61 58 54 48 47 42 38 36 39 39 38 37 35 34 37 40 43 44 46 47 48 50 48 43 42 41 40 37 39
44 47 51 55 58 60 61 62 63 63 64 64 62 57 53 48 43 44 42 38 35 35 35 37 38 36 36 36 37 40 42 43 43 43 42 44 44 42 39 39 37 36 35
39 41 44 46 48 50 52 55 56 56 55 52 50 48 44 43 43 40 38 35 35 34 32 33 34 34 36 36 38 40 40 39 39 37 41 44 43 41 40 40 37 37 35
Wind_Direction_850mb
214 208 206 202 196 194 192 188 186 184 181 176 174 172 166 159 150 137 119 85 57 37 33 31 24 17 10 6 358 354 351 346 337 338 341 339 338 339 342 343 342 341 338
215 211 207 200 200 197 192 188 186 184 180 179 175 171 167 163 155 145 124 87 36 30 33 32 20 12 5 1 357 352 350 346 338 334 340 342 344 346 344 341 339 338 336
218 216 209 204 198 194 192 190 187 186 182 178 178 174 171 169 170 171 185 202 354 17 16 16 10 6 358 359 353 349 347 342 333 332 340 344 345 344 338 336 334 335 335
217 217 210 202 198 196 194 192 190 188 185 181 179 178 178 181 191 219 213 220 242 257 286 331 330 348 357 351 349 347 342 337 336 338 340 339 339 339 335 336 334 335 333
219 215 209 204 201 197 195 193 190 188 185 183 182 179 184 217 228 215 219 230 241 253 268 279 313 330 340 342 343 342 336 337 337 331 333 333 333 335 335 334 329 331 332
217 213 209 206 201 198 196 193 191 188 186 184 181 197 209 228 220 221 229 235 244 251 263 284 298 312 331 326 325 330 327 324 321 327 326 325 327 330 330 327 328 328 327
216 213 210 205 202 199 196 194 194 192 188 183 209 204 222 224 227 230 234 241 246 255 266 275 288 307 307 312 315 315 326 323 315 312 315 320 322 327 324 323 323 322 320
216 214 210 207 203 199 198 198 197 192 190 216 220 209 226 235 235 234 238 245 252 260 268 280 287 293 300 302 302 313 318 316 311 310 314 317 317 320 317 314 317 316 316
218 215 211 208 205 204 202 202 198 192 209 235 208 215 231 238 239 239 244 250 257 265 271 276 285 291 292 300 303 305 305 310 309 306 309 313 315 315 315 313 317 319 322
222 219 215 213 211 209 207 203 201 208 226 225 205 221 234 238 241 244 249 255 264 267 272 280 284 285 288 296 300 300 303 310 305 307 313 314 314 316 316 315 319 321 323
223 221 218 216 215 214 211 210 212 217 234 222 212 226 237 240 244 248 255 259 263 269 275 278 280 282 288 295 294 289 296 304 301 307 307 310 314 317 317 319 321 320 319
227 226 221 219 222 217 216 216 220 219 231 225 219 230 235 240 246 251 255 261 266 273 277 278 280 284 291 293 287 280 291 298 304 302 305 309 313 316 318 318 318 318 318
228 227 226 223 221 220 223 224 217 221 234 233 229 232 235 241 247 252 256 263 270 275 278 279 285 291 293 282 280 287 291 300 304 304 304 307 310 314 315 315 315 319 320
232 228 225 223 232 225 220 221 217 229 238 239 234 233 237 242 247 252 259 265 269 270 276 281 283 282 283 288 293 295 295 299 303 303 303 305 307 309 313 316 317 323 325
235 235 233 229 227 224 224 227 224 237 240 237 242 238 242 247 252 258 259 261 266 274 276 276 277 281 288 292 292 294 296 299 301 299 298 300 302 305 310 314 316 320 327
235 236 235 233 229 229 228 229 232 237 235 242 242 242 245 248 249 256 262 266 270 272 271 276 284 288 290 293 294 293 293 298 299 295 296 298 300 303 307 310 313 317 324
236 238 238 236 232 232 230 232 232 227 238 243 240 242 245 249 254 259 264 269 268 270 266 268 277 282 283 284 287 289 291 295 295 295 295 296 297 299 302 307 312 314 321
241 241 242 242 238 234 232 235 231 228 241 246 241 244 249 254 256 260 261 264 259 252 261 268 272 275 277 281 284 287 290 292 292 293 292 293 294 296 300 305 309 311 318
249 249 246 243 242 241 240 236 234 236 248 250 244 248 251 252 253 259 261 259 263 269 272 274 276 278 281 283 286 289 291 291 291 291 291 292 292 292 296 301 306 308 312
255 254 253 249 245 242 238 238 238 241 254 249 247 248 249 252 254 256 258 261 267 273 276 278 281 284 287 289 292 293 292 291 291 291 291 291 290 290 293 298 304 307 311
254 254 251 249 246 245 244 244 245 249 251 251 252 250 249 250 252 253 255 262 267 272 278 282 286 291 294 296 297 295 292 292 294 293 292 291 291 294 292 294 301 305 309
256 255 255 254 253 251 249 248 248 249 250 251 250 244 243 246 246 249 255 260 266 272 280 287 290 297 303 303 299 296 295 297 296 293 290 292 293 294 294 293 295 303 309
259 258 257 256 255 255 253 252 252 252 252 250 245 241 240 244 247 250 255 260 266 276 283 288 295 301 302 302 299 299 299 299 296 293 293 293 293 293 292 292 291 297 307
264 263 262 262 261 260 259 257 256 253 249 244 240 238 238 242 247 254 257 261 268 276 279 285 291 295 296 298 299 299 297 295 294 294 294 294 294 294 292 292 292 294 301
270 268 266 264 263 262 259 256 251 245 241 239 238 237 238 243 249 249 251 257 265 270 274 280 284 288 293 296 298 296 294 293 293 294 293 290 291 292 292 294 292 290 296
278 273 270 266 263 260 256 251 247 243 240 237 235 235 238 239 241 245 251 258 263 267 272 276 282 289 292 294 294 291 292 292 292 291 289 289 290 291 292 292 291 284 292